Date String (YYYY-MM-DD hh:mm:ss) UTC,Instrument flags,Ambient pressure (hPa),Sample flow (lpm),Bypass flow (lpm),Sample temperature (°C),Ambient temperature (°C),ASC tube jacket temperature (°C),LED temperature (°C),Box temperature (°C),Sample RH (%),Span deviation,Mass concentration (μg/m³),Mass concentration (μg/m³),Mass concentration (μg/m³)
DateTimeUTC,F1_M11,P_M11,Q1_M11,Q2_M11,T1_M11,T2_M11,T3_M11,T4_M11,T5_M11,U1_M11,ZSPAN_M11,X0_M11,X2_M11,X1_M11
2022-05-17 07:00:00,,0822.5,5.00,0.00,29.8,28.6,00.0,38.8,31.6,13.9,0000.0,0008.74,0003.88,0002.82
2022-05-17 07:01:00,,0822.6,5.00,0.00,29.8,28.6,00.0,38.8,31.6,13.8,0000.0,0008.39,0003.87,0002.84
2022-05-17 07:02:00,,0822.5,5.01,0.00,29.8,28.6,00.0,38.8,31.6,13.8,0000.0,0009.06,0003.87,0002.86
2022-05-17 07:03:00,,0822.5,4.99,0.00,29.8,28.6,00.0,38.8,31.6,13.7,0000.0,0009.15,0003.89,0002.86
2022-05-17 07:04:00,,0822.4,4.99,0.00,29.8,28.6,00.0,38.8,31.6,13.6,0000.0,0009.09,0003.93,0002.88
2022-05-17 07:05:00,,0822.4,5.01,0.00,29.8,28.6,00.0,38.8,31.6,13.4,0000.0,0009.51,0004.00,0002.91
2022-05-17 07:06:00,,0822.4,5.01,0.00,29.8,28.5,00.0,38.8,31.6,13.3,0000.0,0009.89,0004.02,0002.92
2022-05-17 07:07:00,,0822.3,5.01,0.00,29.8,28.5,00.0,38.8,31.6,13.1,0000.0,0010.01,0004.06,0002.95
2022-05-17 07:08:00,,0822.3,5.00,0.00,29.8,28.5,00.0,38.8,31.5,13.1,0000.0,0010.17,0004.11,0002.96
2022-05-17 07:09:00,,0822.4,5.00,0.00,29.8,28.5,00.0,38.8,31.5,13.1,0000.0,0010.18,0004.13,0002.97
2022-05-17 07:10:00,,0822.4,5.00,0.00,29.8,28.4,00.0,38.8,31.5,13.1,0000.0,0010.01,0004.11,0002.98
2022-05-17 07:11:00,,0822.3,5.01,0.00,29.8,28.4,00.0,38.8,31.5,13.2,0000.0,0010.01,0004.06,0002.98
2022-05-17 07:12:00,,0822.3,5.00,0.00,29.8,28.4,00.0,38.9,31.5,13.3,0000.0,0010.38,0004.10,0002.99
2022-05-17 07:13:00,,0822.3,5.00,0.00,29.8,28.4,00.0,38.9,31.6,13.5,0000.0,0009.99,0004.12,0002.98
2022-05-17 07:14:00,,0822.3,5.02,0.00,29.8,28.4,00.0,38.9,31.5,13.6,0000.0,0009.88,0004.13,0002.97
2022-05-17 07:15:00,,0822.3,4.99,0.00,29.8,28.4,00.0,38.9,31.5,13.6,0000.0,0009.85,0004.15,0002.96
2022-05-17 07:16:00,,0822.4,5.00,0.00,29.8,28.4,00.0,38.8,31.5,13.6,0000.0,0009.65,0004.15,0002.97
2022-05-17 07:17:00,,0822.3,5.00,0.00,29.8,28.5,00.0,38.8,31.5,13.7,0000.0,0009.24,0004.11,0002.98
2022-05-17 07:18:00,,0822.3,5.00,0.00,29.8,28.5,00.0,38.9,31.6,13.6,0000.0,0009.93,0004.10,0002.98
2022-05-17 07:19:00,,0822.3,4.99,0.00,29.8,28.5,00.0,38.9,31.6,13.5,0000.0,0010.41,0004.08,0002.98
2022-05-17 07:20:00,,0822.3,4.99,0.00,29.8,28.5,00.0,38.9,31.6,13.4,0000.0,0010.50,0004.05,0003.00
2022-05-17 07:21:00,,0822.3,5.01,0.00,29.8,28.4,00.0,38.9,31.5,13.5,0000.0,0010.58,0004.04,0003.02
2022-05-17 07:22:00,,0822.3,4.98,0.00,29.8,28.4,00.0,38.9,31.5,13.6,0000.0,0010.50,0004.07,0003.04
2022-05-17 07:23:00,,0822.4,4.99,0.00,29.8,28.4,00.0,38.9,31.5,13.7,0000.0,0010.77,0004.09,0003.07
2022-05-17 07:24:00,,0822.3,5.01,0.00,29.8,28.4,00.0,38.9,31.4,13.7,0000.0,0011.04,0004.07,0003.10
2022-05-17 07:25:00,,0822.4,4.99,0.00,29.7,28.4,00.0,38.8,31.4,13.8,0000.0,0011.08,0004.11,0003.11
2022-05-17 07:26:00,,0822.3,4.99,0.00,29.7,28.4,00.0,38.8,31.4,13.9,0000.0,0011.10,0004.13,0003.12
2022-05-17 07:27:00,,0822.3,4.99,0.00,29.7,28.4,00.0,38.8,31.4,13.9,0000.0,0012.11,0004.16,0003.12
2022-05-17 07:28:00,,0822.3,5.00,0.00,29.7,28.4,00.0,38.8,31.4,13.9,0000.0,0013.87,0004.21,0003.14
2022-05-17 07:29:00,,0822.4,5.01,0.00,29.7,28.4,00.0,38.8,31.5,13.7,0000.0,0014.09,0004.23,0003.13
2022-05-17 07:30:00,,0822.3,5.01,0.00,29.8,28.4,00.0,38.8,31.5,13.6,0000.0,0014.12,0004.30,0003.14
2022-05-17 07:31:00,,0822.3,4.99,0.00,29.8,28.4,00.0,38.8,31.5,13.6,0000.0,0014.36,0004.31,0003.13
2022-05-17 07:32:00,,0822.3,5.00,0.00,29.8,28.5,00.0,38.8,31.5,13.5,0000.0,0014.41,0004.36,0003.14
2022-05-17 07:33:00,,0822.3,5.02,0.00,29.8,28.5,00.0,38.8,31.6,13.5,0000.0,0015.35,0004.39,0003.14
2022-05-17 07:34:00,,0822.3,4.99,0.00,29.8,28.5,00.0,38.9,31.6,13.5,0000.0,0015.33,0004.37,0003.14
2022-05-17 07:35:00,,0822.4,5.00,0.00,29.8,28.5,00.0,38.9,31.6,13.5,0000.0,0015.15,0004.42,0003.15
2022-05-17 07:36:00,,0822.4,5.00,0.00,29.8,28.5,00.0,38.9,31.6,13.3,0000.0,0015.15,0004.43,0003.15
2022-05-17 07:37:00,,0822.3,5.00,0.00,29.8,28.6,00.0,38.9,31.6,13.2,0000.0,0015.00,0004.38,0003.16
2022-05-17 07:38:00,,0822.3,5.00,0.00,29.8,28.6,00.0,38.9,31.6,13.0,0000.0,0013.91,0004.33,0003.16
2022-05-17 07:39:00,,0822.3,5.01,0.00,29.9,28.6,00.0,38.9,31.6,12.9,0000.0,0012.21,0004.27,0003.15
2022-05-17 07:40:00,,0822.3,5.01,0.00,29.9,28.6,00.0,38.9,31.7,12.9,0000.0,0011.76,0004.25,0003.15
2022-05-17 07:41:00,,0822.3,5.01,0.00,29.9,28.7,00.0,38.9,31.7,12.8,0000.0,0011.29,0004.20,0003.14
2022-05-17 07:42:00,,0822.3,5.00,0.00,29.9,28.7,00.0,38.9,31.7,12.8,0000.0,0011.87,0004.20,0003.13
2022-05-17 07:43:00,,0822.3,5.00,0.00,29.9,28.7,00.0,38.9,31.7,12.9,0000.0,0013.65,0004.16,0003.13
2022-05-17 07:44:00,,0822.3,4.99,0.00,29.9,28.7,00.0,38.9,31.7,13.2,0000.0,0013.00,0004.13,0003.13
2022-05-17 07:45:00,,0822.3,5.00,0.00,29.9,28.7,00.0,38.9,31.8,13.0,0000.0,0012.72,0004.14,0003.14
2022-05-17 07:46:00,,0822.3,4.99,0.00,29.9,28.8,00.0,39.0,31.7,13.0,0000.0,0012.50,0004.13,0003.13
2022-05-17 07:47:00,,0822.3,5.00,0.00,30.0,28.8,00.0,39.0,31.7,13.1,0000.0,0012.51,0004.12,0003.13
2022-05-17 07:48:00,,0822.3,5.00,0.00,30.0,28.8,00.0,39.0,31.8,13.1,0000.0,0012.79,0004.17,0003.14
2022-05-17 07:49:00,,0822.3,5.00,0.00,30.0,28.8,00.0,39.0,31.7,13.1,0000.0,0012.95,0004.24,0003.14
2022-05-17 07:50:00,,0822.3,4.99,0.00,30.0,28.8,00.0,39.0,31.8,13.1,0000.0,0013.47,0004.30,0003.15
2022-05-17 07:51:00,,0822.3,5.01,0.00,30.0,28.8,00.0,39.0,31.8,13.1,0000.0,0013.00,0004.32,0003.15
2022-05-17 07:52:00,,0822.2,5.01,0.00,30.0,28.9,00.0,39.0,31.8,13.0,0000.0,0012.89,0004.34,0003.15
2022-05-17 07:53:00,,0822.2,5.00,0.00,30.0,28.9,00.0,39.0,31.8,13.0,0000.0,0012.33,0004.40,0003.17
2022-05-17 07:54:00,,0822.2,4.99,0.00,30.0,28.9,00.0,39.0,31.8,13.0,0000.0,0010.68,0004.44,0003.17
2022-05-17 07:55:00,,0822.3,5.00,0.00,30.0,28.9,00.0,39.0,31.8,13.0,0000.0,0010.53,0004.46,0003.17
2022-05-17 07:56:00,,0822.3,4.99,0.00,30.1,28.9,00.0,39.0,31.9,13.0,0000.0,0010.54,0004.50,0003.17
2022-05-17 07:57:00,,0822.3,5.01,0.00,30.1,28.9,00.0,39.1,31.9,13.0,0000.0,0010.71,0004.50,0003.16
2022-05-17 07:58:00,,0822.3,4.99,0.00,30.1,28.9,00.0,39.1,31.9,13.0,0000.0,0010.91,0004.51,0003.16
2022-05-17 07:59:00,,0822.3,5.00,0.00,30.1,28.9,00.0,39.1,31.8,12.7,0000.0,0011.37,0004.51,0003.16
